Murray, NE

8:51 AM CDT on August 30, 2016 (GMT -0500)
Plattsmouth Municipal

Weather History for KPMV - November, 2013

Change the Weather History Date:

Saturday, November 2, 2013

  Actual Average (KOFF) Record (KOFF)
Temperature  
Mean Temperature 46 °F -  
Max Temperature 57 °F 53 °F 80 °F (2005)
Min Temperature 35 °F 35 °F 17 °F (2006)
Degree Days  
Heating Degree Days 19    
Moisture  
Dew Point 34 °F    
Average Humidity 67    
Maximum Humidity 90    
Minimum Humidity 36    
Precipitation  
Precipitation 0.00 in - - ()
Sea Level Pressure  
Sea Level Pressure 30.11 in    
Wind  
Wind Speed 10 mph (WNW)    
Max Wind Speed 16 mph    
Max Gust Speed 24 mph    
Visibility 10 miles    
Events      
Averages and records for this station are not official NWS values.
T = Trace of Precipitation, MM = Missing Value Source: NWS Daily Summary

Daily Weather History Graph

Daily Weather History Graph

Search for Another Location

Airport or City:

Trip Planner

Search our weather history database for the weather conditions in past years. The results will help you decide how hot, cold, wet, or windy it might be!

Date:

Astronomy

Nov. 02, 2013 Rise Set
Actual Time 7:55 AM CDT 6:17 PM CDT
Civil Twilight 7:27 AM CDT 6:46 PM CDT
Nautical Twilight 6:54 AM CDT 7:19 PM CDT
Astronomical Twilight 6:22 AM CDT 7:51 PM CDT
Moon 6:54 AM CDT (11/2) 5:50 PM CDT (11/2)
Length of Visible Light 11h 19m
Length of Day
10h 22m
Waning Crescent, 1% of the Moon is Illuminated
Nov 2
Waning Crescent
Nov 3
New
Nov 9
First Quarter
Nov 17
Full
Nov 25
Last Quarter

Hourly Weather History & Observations

Time (CDT) Temp. Windchill Dew Point Humidity Pressure Visibility Wind Dir Wind Speed Gust Speed Precip Events Conditions
12:15 AM 46.2 °F 39.5 °F 39.7 °F 78% 29.98 in 10.0 mi NW 16.1 mph 24.2 mph N/A   Overcast
12:35 AM 45.9 °F 40.0 °F 39.6 °F 79% 29.99 in 10.0 mi NW 12.7 mph 19.6 mph N/A   Overcast
12:55 AM 44.6 °F 38.4 °F 39.2 °F 81% 29.99 in 10.0 mi NW 12.7 mph 21.9 mph N/A   Mostly Cloudy
1:15 AM 45.5 °F 39.9 °F 39.2 °F 79% 30.00 in 10.0 mi NW 11.5 mph - N/A   Mostly Cloudy
1:35 AM 44.6 °F 38.1 °F 38.5 °F 79% 30.01 in 10.0 mi NW 13.8 mph 21.9 mph N/A   Overcast
1:55 AM 43.7 °F 36.6 °F 37.4 °F 78% 30.02 in 10.0 mi NW 15.0 mph 21.9 mph N/A   Mostly Cloudy
2:15 AM 42.8 °F 36.2 °F 37.0 °F 80% 30.02 in 10.0 mi NW 12.7 mph 18.4 mph N/A   Scattered Clouds
2:35 AM 41.7 °F 35.6 °F 36.7 °F 82% 30.03 in 10.0 mi NW 10.4 mph - N/A   Scattered Clouds
2:55 AM 41.2 °F 35.0 °F 36.5 °F 83% 30.03 in 10.0 mi WNW 10.4 mph - N/A   Clear
3:15 AM 40.6 °F 33.8 °F 36.5 °F 85% 30.04 in 10.0 mi WNW 11.5 mph 16.1 mph N/A   Scattered Clouds
3:35 AM 40.6 °F 33.8 °F 36.5 °F 85% 30.04 in 10.0 mi WNW 11.5 mph - N/A   Mostly Cloudy
3:55 AM 40.6 °F 33.4 °F 36.7 °F 86% 30.05 in 10.0 mi NW 12.7 mph - N/A   Overcast
4:15 AM 39.6 °F 32.5 °F 36.0 °F 87% 30.05 in 10.0 mi NW 11.5 mph - N/A   Scattered Clouds
4:35 AM 39.6 °F 32.5 °F 36.5 °F 89% 30.06 in 10.0 mi WNW 11.5 mph - N/A   Scattered Clouds
4:55 AM 39.2 °F 32.5 °F 35.6 °F 87% 30.07 in 10.0 mi WNW 10.4 mph - N/A   Scattered Clouds
5:15 AM 38.3 °F 31.4 °F 35.1 °F 88% 30.07 in 10.0 mi WNW 10.4 mph - N/A   Clear
5:35 AM 38.3 °F 31.4 °F 34.9 °F 87% 30.08 in 10.0 mi NW 10.4 mph - N/A   Clear
5:55 AM 37.4 °F 30.3 °F 34.7 °F 90% 30.09 in 10.0 mi NW 10.4 mph - N/A   Clear
6:15 AM 37.0 °F 29.8 °F 34.3 °F 90% 30.10 in 10.0 mi WNW 10.4 mph - N/A   Clear
6:35 AM 36.7 °F 29.9 °F 34.0 °F 90% 30.11 in 10.0 mi WNW 9.2 mph - N/A   Clear
6:55 AM 36.1 °F 28.7 °F 33.4 °F 90% 30.11 in 10.0 mi NW 10.4 mph - N/A   Clear
7:15 AM 36.1 °F 29.3 °F 33.4 °F 90% 30.13 in 10.0 mi WNW 9.2 mph - N/A   Clear
7:35 AM 35.6 °F 29.2 °F 32.9 °F 90% 30.13 in 10.0 mi WNW 8.1 mph - N/A   Clear
7:55 AM 35.2 °F 28.8 °F 32.5 °F 90% 30.13 in 10.0 mi WNW 8.1 mph - N/A   Clear
8:15 AM 35.4 °F 29.7 °F 32.5 °F 89% 30.14 in 10.0 mi WNW 6.9 mph - N/A   Clear
8:35 AM 36.0 °F 30.3 °F 32.9 °F 89% 30.15 in 10.0 mi WNW 6.9 mph - N/A   Clear
8:55 AM 37.2 °F 31.2 °F 33.8 °F 87% 30.16 in 10.0 mi WNW 8.1 mph - N/A   Clear
9:15 AM 38.3 °F 32.5 °F 34.3 °F 86% 30.17 in 10.0 mi WNW 8.1 mph - N/A   Clear
9:35 AM 39.6 °F 34.0 °F 34.9 °F 83% 30.18 in 10.0 mi WNW 8.1 mph - N/A   Clear
9:55 AM 41.0 °F 34.7 °F 35.2 °F 80% 30.18 in 10.0 mi NW 10.4 mph - N/A   Clear
10:15 AM 42.1 °F 36.6 °F 35.6 °F 78% 30.18 in 10.0 mi WNW 9.2 mph - N/A   Clear
10:35 AM 43.9 °F 38.8 °F 36.3 °F 75% 30.18 in 10.0 mi NW 9.2 mph - N/A   Clear
10:55 AM 44.8 °F 39.4 °F 36.1 °F 72% 30.19 in 10.0 mi WNW 10.4 mph - N/A   Clear
12:15 PM 49.6 °F - 36.0 °F 59% 30.19 in 10.0 mi NW 10.4 mph - N/A   Clear
12:35 PM 50.5 °F - 35.2 °F 56% 30.19 in 10.0 mi WNW 10.4 mph - N/A   Clear
12:55 PM 52.0 °F - 34.0 °F 50% 30.19 in 10.0 mi NW 8.1 mph - N/A   Clear
1:15 PM 53.1 °F - 33.8 °F 48% 30.18 in 10.0 mi NW 11.5 mph - N/A   Clear
1:35 PM 53.6 °F - 33.8 °F 47% 30.17 in 10.0 mi WNW 4.6 mph - N/A   Clear
1:55 PM 54.5 °F - 33.8 °F 46% 30.17 in 10.0 mi NNW 4.6 mph - N/A   Clear
2:15 PM 55.2 °F - 33.3 °F 43% 30.16 in 10.0 mi West 3.5 mph - N/A   Clear
2:35 PM 55.8 °F - 33.1 °F 42% 30.16 in 10.0 mi NW 10.4 mph - N/A   Clear
2:55 PM 56.3 °F - 32.4 °F 40% 30.15 in 10.0 mi West 8.1 mph - N/A   Clear
3:15 PM 56.5 °F - 32.2 °F 40% 30.15 in 10.0 mi WNW 8.1 mph 16.1 mph N/A   Clear
3:35 PM 56.7 °F - 32.5 °F 40% 30.14 in 10.0 mi West 5.8 mph - N/A   Clear
3:55 PM 56.8 °F - 31.6 °F 38% 30.14 in 10.0 mi WNW 3.5 mph - N/A   Clear
4:15 PM 57.2 °F - 31.5 °F 38% 30.13 in 10.0 mi WSW 6.9 mph - N/A   Clear
4:35 PM 57.2 °F - 31.1 °F 37% 30.13 in 10.0 mi West 4.6 mph - N/A   Clear
4:55 PM 57.2 °F - 30.6 °F 36% 30.13 in 10.0 mi West 3.5 mph - N/A   Clear
5:15 PM 56.8 °F - 30.0 °F 36% 30.12 in 10.0 mi Calm Calm - N/A   Clear
5:35 PM 56.3 °F - 31.1 °F 38% 30.11 in 10.0 mi Calm Calm - N/A   Clear
5:55 PM 55.4 °F - 31.1 °F 40% 30.11 in 10.0 mi South 3.5 mph - N/A   Clear
6:15 PM 54.3 °F - 31.5 °F 42% 30.11 in 10.0 mi Calm Calm - N/A   Clear
6:35 PM 51.8 °F - 32.0 °F 47% 30.11 in 10.0 mi SSE 4.6 mph - N/A   Clear
6:55 PM 50.9 °F - 32.0 °F 48% 30.11 in 10.0 mi SSE 5.8 mph - N/A   Clear
7:15 PM 49.5 °F - 32.2 °F 51% 30.11 in 10.0 mi SSE 5.8 mph - N/A   Clear
7:35 PM 48.6 °F - 32.2 °F 53% 30.11 in 10.0 mi SSE 5.8 mph - N/A   Clear
7:55 PM 47.3 °F - 32.5 °F 57% 30.11 in 10.0 mi SSE 5.8 mph - N/A   Clear
8:15 PM 46.4 °F 42.4 °F 32.9 °F 59% 30.11 in 10.0 mi SSE 8.1 mph - N/A   Clear
8:35 PM 45.5 °F 41.3 °F 32.9 °F 61% 30.11 in 10.0 mi SSE 8.1 mph - N/A   Clear
8:55 PM 45.7 °F 41.0 °F 32.9 °F 61% 30.10 in 10.0 mi SSE 9.2 mph - N/A   Clear
9:15 PM 45.9 °F 41.7 °F 32.5 °F 60% 30.10 in 10.0 mi SSE 8.1 mph - N/A   Clear
9:35 PM 45.0 °F 40.6 °F 32.5 °F 62% 30.10 in 10.0 mi SSE 8.1 mph - N/A   Clear
9:55 PM 44.6 °F 39.7 °F 32.4 °F 62% 30.10 in 10.0 mi SSE 9.2 mph - N/A   Clear
10:15 PM 44.1 °F 39.0 °F 32.2 °F 63% 30.10 in 10.0 mi SSE 9.2 mph - N/A   Clear
10:35 PM 44.2 °F 39.2 °F 32.2 °F 63% 30.09 in 10.0 mi SSE 9.2 mph - N/A   Clear
10:55 PM 44.2 °F 39.2 °F 32.0 °F 62% 30.10 in 10.0 mi SSE 9.2 mph - N/A   Clear
11:15 PM 43.9 °F 38.8 °F 32.2 °F 63% 30.10 in 10.0 mi SSE 9.2 mph - N/A   Clear
11:35 PM 43.2 °F 37.9 °F 32.2 °F 65% 30.10 in 10.0 mi SSE 9.2 mph - N/A   Clear
11:55 PM 41.9 °F 36.3 °F 32.0 °F 68% 30.10 in 10.0 mi South 9.2 mph - N/A   Clear